CMS-01 (47256 NORAD) Tracking and Keplerian Element Data

This shows tracking and keplerian element data for the satellite.

Feedback or suggestion? Click here.




ElementValue
Catalog47256
NameCMS-01
Epoch Orbit122
Epoch Day101.92762481
Epoch Year2021
RAAN97.3408
Inclination0.0817
Eccentricity0.0005355
Argument of Perigee194.8285
Mean Anonmoly325.1527
Mean Motion1.00273213
Decay Rate-1.73E-06
L11 47256U 20099A 21101.92762481 -.00000173 00000-0 00000-0 0 9990
L22 47256 0.0817 97.3408 0005355 194.8285 325.1527 1.00273213 1227

Live tracking and technical data element details for CMS-01 (NORAD 47256). CMS-01 can be tracked NOW for your location showing map with azimuth and elevation plus other details from your city location.

Track the satellite on the map from your city or location and see movement details for azimuth, elevation, latitude, longitude, range, height, and movement on the map or in text.







IsCatalogInMostPopularTable: catalog: 47256, numindb: 31
Update: records affected: 1



GetName: 47256 CMS-01

Hit Count: updated at: Tue, 13 Apr 2021 05:26:28 GMT